Weather History for Ouarzazate, Morocco

Change the Weather History Date:

Wednesday, April 23, 2014

  Actual Average Record
Temperature  
Mean Temperature 68 °F -  
Max Temperature 81 °F 83 °F - ()
Min Temperature 55 °F 55 °F - ()
Cooling Degree Days 3    
Growing Degree Days 18 (Base 50)    
Moisture  
Dew Point 21 °F    
Average Humidity 14    
Maximum Humidity 26    
Minimum Humidity 4    
Precipitation  
Precipitation 0.00 in 0.01 in - ()
Sea Level Pressure  
Sea Level Pressure 30.14 in    
Wind  
Wind Speed 3 mph ()    
Max Wind Speed 9 mph    
Max Gust Speed -    
Visibility 12.0 miles    
Events      
T = Trace of Precipitation, MM = Missing Value Source: Averaged Metar Reports

Daily Weather History Graph

Daily Weather History Graph

Search for Another Location

Airport:

Trip Planner

Search our weather history database for the weather conditions in past years. The results will help you decide how hot, cold, wet, or windy it might be!

Date:

Astronomy

Apr. 23, 2014 Rise Set
Actual Time 6:51 AM WEST 8:00 PM WEST
Civil Twilight 6:26 AM WEST 8:26 PM WEST
Nautical Twilight 5:56 AM WEST 8:56 PM WEST
Astronomical Twilight 5:25 AM WEST 9:27 PM WEST
Moon 2:48 AM WEST (4/23) 2:17 PM WEST (4/23)
Length of Visible Light 13h 59m
Length of Day
13h 09m
Last Quarter, 37% of the Moon is Illuminated
Apr 23
Last Quarter
Apr 29
New
May 7
First Quarter
May 14
Full
May 21
Last Quarter

Hourly Weather History & Observations

Time (WEST) Temp. Dew Point Humidity Pressure Visibility Wind Dir Wind Speed Gust Speed Precip Events Conditions
12:00 AM 68.0 °F 21.2 °F 17% 30.12 in - South 8.1 mph - N/A   Clear
1:00 AM 67 °F 21 °F 9%  in 12 mi SSE 1.2 mph - -   Clear
1:00 AM 68.0 °F 21.2 °F 17% 30.12 in - Variable 1.2 mph - N/A   Clear
2:00 AM 64.4 °F 23.0 °F 21% 30.12 in - Calm Calm - N/A   Clear
3:00 AM 62.6 °F 23.0 °F 22% 30.12 in - Variable 1.2 mph - N/A   Clear
4:00 AM 62 °F 22 °F 12%  in 12 mi ESE 3.5 mph - -   Clear
4:00 AM 62.6 °F 23.0 °F 22% 30.12 in - Variable 3.5 mph - N/A   Clear
5:00 AM 57.2 °F 21.2 °F 25% 30.12 in - Variable 1.2 mph - N/A   Clear
6:00 AM 59.0 °F 23.0 °F 25% 30.15 in - Variable 1.2 mph - N/A   Clear
7:00 AM 55 °F 21 °F 15%  in 12 mi Calm Calm - -   Clear
7:00 AM 55.4 °F 21.2 °F 26% 30.15 in - Calm Calm - N/A   Clear
8:00 AM 59.0 °F 21.2 °F 23% 30.18 in - Calm Calm - N/A   Clear
9:00 AM 60.8 °F 23.0 °F 23% 30.21 in - Calm Calm - N/A   Clear
10:00 AM 67 °F 26 °F 11%  in 12 mi ENE 1.2 mph - -  
10:00 AM 68.0 °F 26.6 °F 21% 30.21 in - Variable 1.2 mph - N/A   Clear
11:00 AM 69.8 °F 23.0 °F 17% 30.21 in - Variable 1.2 mph - N/A   Clear
12:00 PM 73.4 °F 21.2 °F 14% 30.21 in - Variable 2.3 mph - N/A   Clear
1:00 PM 75 °F 22 °F 6%  in 12 mi SW 3.5 mph - -  
1:00 PM 77.0 °F 19.4 °F 12% 30.18 in - Variable 4.6 mph - N/A   Clear
2:00 PM 77.0 °F 19.4 °F 12% 30.18 in - Variable 3.5 mph - N/A   Clear
3:00 PM 80.6 °F 19.4 °F 10% 30.15 in - SE 5.8 mph - N/A   Clear
4:00 PM 80 °F 18 °F 4%  in 12 mi SSW 6.9 mph - -  
4:00 PM 80.6 °F 19.4 °F 10% 30.12 in - South 6.9 mph - N/A   Clear
5:00 PM 80.6 °F 19.4 °F 10% 30.09 in - SSW 5.8 mph - N/A   Clear
6:00 PM 80.6 °F 19.4 °F 10% 30.09 in - SSE 9.2 mph - N/A   Clear
7:00 PM 80 °F 18 °F 4%  in 12 mi South 8.1 mph - -  
7:00 PM 80.6 °F 17.6 °F 10% 30.09 in - SSE 9.2 mph - N/A   Clear
8:00 PM 77.0 °F 17.6 °F 11% 30.12 in - SE 9.2 mph - N/A   Clear
9:00 PM 75.2 °F 17.6 °F 11% 30.12 in - SE 6.9 mph - N/A   Clear
10:00 PM 74 °F 16 °F 5%  in 12 mi SE 6.9 mph - -  
10:00 PM 75.2 °F 15.8 °F 11% 30.15 in - SE 5.8 mph - N/A   Clear
11:00 PM 73.4 °F 17.6 °F 12% 30.15 in - SSE 5.8 mph - N/A   Clear